| time (UTC) | temp C | wind direction | speed KPH | gust KPH | rain 1hr cm | rain 24hr cm | rain mn cm | humidity % | barometer mb |
| 20260508115601 | 8 | 223 | 0.0 | 1.6 | 0.00 | 0.00 | 0.00 | 83 | 1009.9 |
| 20260508115057 | 8 | 207 | 4.8 | 4.8 | 0.00 | 0.00 | 0.00 | 83 | 1009.8 |
| 20260508114554 | 8 | 209 | 3.2 | 3.2 | 0.00 | 0.00 | 0.00 | 84 | 1009.8 |
| 20260508114050 | 8 | 209 | 4.8 | 4.8 | 0.00 | 0.00 | 0.00 | 85 | 1009.6 |
| 20260508113548 | 8 | 207 | 3.2 | 3.2 | 0.00 | 0.00 | 0.00 | 85 | 1009.8 |
| 20260508113046 | 8 | 213 | 1.6 | 3.2 | 0.00 | 0.00 | 0.00 | 85 | 1009.9 |
| 20260508112542 | 8 | 227 | 0.0 | 0.0 | 0.00 | 0.00 | 0.00 | 84 | 1009.7 |
| 20260508112039 | 7 | 210 | 1.6 | 1.6 | 0.00 | 0.00 | 0.00 | 84 | 1009.6 |
| 20260508111536 | 7 | 219 | 0.0 | 1.6 | 0.00 | 0.00 | 0.00 | 84 | 1009.4 |
| 20260508111033 | 8 | 219 | 1.6 | 1.6 | 0.00 | 0.00 | 0.00 | 83 | 1009.6 |
| 20260508110531 | 8 | 238 | 1.6 | 1.6 | 0.00 | 0.00 | 0.00 | 82 | 1009.8 |
| 20260508110026 | 8 | 254 | 1.6 | 3.2 | 0.00 | 0.00 | 0.00 | 82 | 1009.7 |
| 20260508105521 | 8 | 288 | 0.0 | 0.0 | 0.00 | 0.00 | 0.00 | 82 | 1009.7 |
| 20260508105019 | 8 | 248 | 1.6 | 1.6 | 0.00 | 0.00 | 0.00 | 81 | 1009.6 |
| 20260508104517 | 8 | 237 | 1.6 | 3.2 | 0.00 | 0.00 | 0.00 | 82 | 1009.6 |
| 20260508104013 | 8 | 240 | 1.6 | 1.6 | 0.00 | 0.00 | 0.00 | 82 | 1009.4 |
| 20260508103510 | 8 | 207 | 4.8 | 4.8 | 0.00 | 0.00 | 0.00 | 81 | 1009.5 |
| 20260508103008 | 8 | 261 | 3.2 | 4.8 | 0.00 | 0.00 | 0.00 | 81 | 1009.6 |
| 20260508102505 | 8 | 242 | 8.0 | 9.7 | 0.00 | 0.00 | 0.00 | 81 | 1009.5 |
| 20260508102003 | 8 | 224 | 6.4 | 8.0 | 0.00 | 0.00 | 0.00 | 82 | 1009.8 |
| 20260508101500 | 7 | 239 | 3.2 | 3.2 | 0.00 | 0.00 | 0.00 | 83 | 1009.9 |
| 20260508100956 | 7 | 253 | 4.8 | 4.8 | 0.00 | 0.00 | 0.00 | 84 | 1009.6 |
| 20260508100455 | 7 | 228 | 3.2 | 3.2 | 0.00 | 0.00 | 0.00 | 84 | 1009.5 |
| 20260508095951 | 7 | 232 | 4.8 | 4.8 | 0.00 | 0.00 | 0.00 | 84 | 1009.5 |
| 20260508095449 | 7 | 217 | 3.2 | 3.2 | 0.00 | 0.00 | 0.00 | 84 | 1009.5 |
| 20260508094946 | 7 | 236 | 3.2 | 3.2 | 0.00 | 0.00 | 0.00 | 83 | 1009.6 |
| 20260508094442 | 7 | 280 | 4.8 | 9.7 | 0.00 | 0.00 | 0.00 | 84 | 1009.2 |
| 20260508093939 | 7 | 260 | 11.3 | 12.9 | 0.00 | 0.00 | 0.00 | 85 | 1009.2 |
| 20260508093436 | 7 | 225 | 3.2 | 3.2 | 0.00 | 0.00 | 0.00 | 84 | 1009.5 |
| 20260508092934 | 7 | 244 | 4.8 | 4.8 | 0.00 | 0.00 | 0.00 | 82 | 1009.5 |
| 20260508092432 | 7 | 197 | 0.0 | 0.0 | 0.00 | 0.00 | 0.00 | 83 | 1009.6 |
| 20260508091930 | 7 | 219 | 3.2 | 4.8 | 0.00 | 0.00 | 0.00 | 83 | 1009.7 |
| 20260508091426 | 7 | 228 | 4.8 | 4.8 | 0.00 | 0.00 | 0.00 | 82 | 1009.7 |
| 20260508090924 | 7 | 218 | 1.6 | 3.2 | 0.00 | 0.00 | 0.00 | 82 | 1009.6 |
| 20260508090423 | 7 | 230 | 1.6 | 1.6 | 0.00 | 0.00 | 0.00 | 82 | 1010.0 |
| 20260508085918 | 7 | 244 | 1.6 | 1.6 | 0.00 | 0.00 | 0.00 | 82 | 1010.0 |
| 20260508085415 | 7 | 261 | 3.2 | 3.2 | 0.00 | 0.00 | 0.00 | 82 | 1009.8 |
| 20260508084911 | 7 | 210 | 4.8 | 4.8 | 0.00 | 0.00 | 0.00 | 82 | 1009.9 |
| 20260508084408 | 7 | 242 | 3.2 | 3.2 | 0.00 | 0.00 | 0.00 | 82 | 1009.8 |
| 20260508083906 | 7 | 228 | 4.8 | 9.7 | 0.00 | 0.00 | 0.00 | 83 | 1009.9 |
| 20260508083403 | 7 | 235 | 6.4 | 8.0 | 0.00 | 0.00 | 0.00 | 83 | 1009.8 |
| 20260508082902 | 7 | 242 | 0.0 | 1.6 | 0.00 | 0.00 | 0.00 | 84 | 1009.8 |
| 20260508082400 | 7 | 209 | 1.6 | 3.2 | 0.00 | 0.00 | 0.00 | 84 | 1009.8 |
| 20260508081858 | 7 | 202 | 4.8 | 4.8 | 0.00 | 0.00 | 0.00 | 84 | 1009.9 |
| 20260508081354 | 7 | 227 | 3.2 | 3.2 | 0.00 | 0.00 | 0.00 | 84 | 1009.7 |
| 20260508080851 | 6 | 195 | 3.2 | 3.2 | 0.00 | 0.00 | 0.00 | 85 | 1009.9 |
| 20260508080349 | 6 | 207 | 0.0 | 0.0 | 0.00 | 0.00 | 0.00 | 85 | 1010.0 |
| 20260508075845 | 7 | 209 | 0.0 | 0.0 | 0.00 | 0.00 | 0.00 | 85 | 1010.2 |
| 20260508075343 | 7 | 229 | 1.6 | 1.6 | 0.00 | 0.00 | 0.00 | 84 | 1010.0 |
| 20260508074840 | 7 | 209 | 1.6 | 1.6 | 0.00 | 0.00 | 0.00 | 84 | 1010.0 |
| 20260508074337 | 7 | 203 | 3.2 | 3.2 | 0.00 | 0.00 | 0.00 | 83 | 1009.9 |
| 20260508073834 | 7 | 212 | 4.8 | 8.0 | 0.00 | 0.00 | 0.00 | 83 | 1010.2 |
| 20260508073332 | 7 | 248 | 3.2 | 3.2 | 0.00 | 0.00 | 0.00 | 83 | 1010.1 |
| 20260508072828 | 7 | 232 | 1.6 | 3.2 | 0.00 | 0.00 | 0.00 | 82 | 1009.9 |
| 20260508072325 | 7 | 240 | 8.0 | 11.3 | 0.00 | 0.00 | 0.00 | 82 | 1010.1 |
| 20260508071822 | 7 | 237 | 3.2 | 4.8 | 0.00 | 0.00 | 0.00 | 82 | 1010.2 |
| 20260508071321 | 7 | 238 | 3.2 | 3.2 | 0.00 | 0.00 | 0.00 | 81 | 1010.1 |
| 20260508070818 | 8 | 222 | 3.2 | 4.8 | 0.00 | 0.00 | 0.00 | 81 | 1010.1 |
| 20260508070316 | 8 | 245 | 4.8 | 4.8 | 0.00 | 0.00 | 0.00 | 80 | 1010.4 |
| 20260508065813 | 8 | 224 | 4.8 | 4.8 | 0.00 | 0.00 | 0.00 | 80 | 1010.2 |
| 20260508065311 | 8 | 232 | 4.8 | 4.8 | 0.00 | 0.00 | 0.00 | 79 | 1010.2 |
| 20260508064809 | 8 | 263 | 6.4 | 8.0 | 0.00 | 0.00 | 0.00 | 78 | 1010.4 |
| 20260508064306 | 8 | 240 | 6.4 | 8.0 | 0.00 | 0.00 | 0.00 | 76 | 1010.1 |
| 20260508063803 | 8 | 216 | 8.0 | 9.7 | 0.00 | 0.00 | 0.00 | 70 | 1010.0 |
| 20260508063302 | 8 | 218 | 6.4 | 9.7 | 0.00 | 0.00 | 0.00 | 70 | 1010.1 |
| 20260508062759 | 8 | 216 | 3.2 | 3.2 | 0.00 | 0.00 | 0.00 | 71 | 1010.1 |
| 20260508062256 | 8 | 256 | 6.4 | 8.0 | 0.00 | 0.00 | 0.00 | 71 | 1010.0 |
| 20260508061753 | 8 | 205 | 1.6 | 3.2 | 0.00 | 0.00 | 0.00 | 72 | 1010.2 |
| 20260508061250 | 8 | 213 | 1.6 | 3.2 | 0.00 | 0.00 | 0.00 | 72 | 1010.1 |
| 20260508060746 | 8 | 194 | 1.6 | 3.2 | 0.00 | 0.00 | 0.00 | 73 | 1010.3 |
| 20260508060244 | 7 | 197 | 1.6 | 1.6 | 0.00 | 0.00 | 0.00 | 74 | 1010.1 |
| 20260508055739 | 7 | 200 | 1.6 | 1.6 | 0.00 | 0.00 | 0.00 | 74 | 1010.2 |
| 20260508055237 | 7 | 188 | 1.6 | 1.6 | 0.00 | 0.00 | 0.00 | 74 | 1010.0 |
| 20260508054733 | 7 | 192 | 0.0 | 0.0 | 0.00 | 0.00 | 0.00 | 73 | 1010.4 |
| 20260508054231 | 7 | 196 | 0.0 | 0.0 | 0.00 | 0.00 | 0.00 | 74 | 1010.3 |
| 20260508053728 | 7 | 192 | 3.2 | 3.2 | 0.00 | 0.00 | 0.00 | 74 | 1010.4 |
| 20260508053225 | 7 | 193 | 1.6 | 1.6 | 0.00 | 0.00 | 0.00 | 73 | 1010.7 |
| 20260508052722 | 7 | 195 | 3.2 | 3.2 | 0.00 | 0.00 | 0.00 | 73 | 1010.5 |
| 20260508052219 | 7 | 197 | 0.0 | 0.0 | 0.00 | 0.00 | 0.00 | 73 | 1010.7 |
| 20260508051715 | 7 | 215 | 0.0 | 0.0 | 0.00 | 0.00 | 0.00 | 74 | 1010.5 |
| 20260508051211 | 7 | 227 | 0.0 | 0.0 | 0.00 | 0.00 | 0.00 | 73 | 1010.8 |
| 20260508050708 | 8 | 211 | 0.0 | 0.0 | 0.00 | 0.00 | 0.00 | 73 | 1010.8 |
| 20260508050206 | 8 | 211 | 0.0 | 0.0 | 0.00 | 0.00 | 0.00 | 73 | 1010.7 |
| 20260508045700 | 8 | 211 | 0.0 | 0.0 | 0.00 | 0.00 | 0.00 | 72 | 1010.9 |
| 20260508045159 | 8 | 210 | 0.0 | 0.0 | 0.00 | 0.00 | 0.00 | 73 | 1010.7 |
| 20260508044656 | 8 | 205 | 0.0 | 0.0 | 0.00 | 0.00 | 0.00 | 72 | 1010.8 |
| 20260508044152 | 8 | 213 | 3.2 | 3.2 | 0.00 | 0.00 | 0.00 | 72 | 1010.5 |
| 20260508043648 | 8 | 209 | 1.6 | 3.2 | 0.00 | 0.00 | 0.00 | 72 | 1010.7 |
| 20260508043146 | 8 | 227 | 0.0 | 0.0 | 0.00 | 0.00 | 0.00 | 71 | 1010.8 |
| 20260508042642 | 8 | 221 | 0.0 | 0.0 | 0.00 | 0.00 | 0.00 | 71 | 1010.7 |
| 20260508042140 | 8 | 248 | 3.2 | 3.2 | 0.00 | 0.00 | 0.00 | 70 | 1010.5 |
| 20260508041636 | 8 | 220 | 1.6 | 3.2 | 0.00 | 0.00 | 0.00 | 70 | 1010.4 |
| 20260508041133 | 8 | 236 | 1.6 | 1.6 | 0.00 | 0.00 | 0.00 | 70 | 1010.8 |
| 20260508040629 | 8 | 236 | 1.6 | 1.6 | 0.00 | 0.00 | 0.00 | 69 | 1010.8 |
| 20260508040127 | 8 | 242 | 3.2 | 3.2 | 0.00 | 0.00 | 0.00 | 68 | 1011.0 |
| 20260508035624 | 8 | 243 | 3.2 | 3.2 | 0.00 | 0.00 | 0.00 | 68 | 1010.9 |
| 20260508035121 | 8 | 280 | 3.2 | 3.2 | 0.00 | 0.00 | 0.00 | 68 | 1010.8 |
| 20260508034618 | 8 | 238 | 4.8 | 4.8 | 0.00 | 0.00 | 0.00 | 68 | 1010.9 |
| 20260508034115 | 8 | 228 | 1.6 | 3.2 | 0.00 | 0.00 | 0.00 | 68 | 1011.0 |
| 20260508033613 | 8 | 240 | 4.8 | 8.0 | 0.00 | 0.00 | 0.00 | 68 | 1010.9 |
| 20260508033111 | 8 | 217 | 6.4 | 8.0 | 0.00 | 0.00 | 0.00 | 69 | 1011.0 |
| 20260508032607 | 8 | 251 | 4.8 | 4.8 | 0.00 | 0.00 | 0.00 | 69 | 1010.9 |
| 20260508032105 | 8 | 216 | 6.4 | 9.7 | 0.00 | 0.00 | 0.00 | 69 | 1011.0 |
| 20260508031602 | 8 | 235 | 1.6 | 3.2 | 0.00 | 0.00 | 0.00 | 70 | 1010.8 |
| 20260508031057 | 8 | 235 | 1.6 | 3.2 | 0.00 | 0.00 | 0.00 | 71 | 1011.0 |
| 20260508030554 | 7 | 236 | 3.2 | 3.2 | 0.00 | 0.00 | 0.00 | 70 | 1010.9 |
| 20260508030052 | 7 | 233 | 1.6 | 1.6 | 0.00 | 0.00 | 0.00 | 72 | 1011.1 |
| 20260508025548 | 7 | 223 | 3.2 | 3.2 | 0.00 | 0.00 | 0.00 | 72 | 1011.1 |
| 20260508025045 | 6 | 284 | 3.2 | 3.2 | 0.00 | 0.00 | 0.00 | 78 | 1011.1 |
| 20260508024541 | 6 | 345 | 0.0 | 1.6 | 0.00 | 0.00 | 0.00 | 85 | 1011.1 |
| 20260508024038 | 5 | 333 | 0.0 | 0.0 | 0.00 | 0.00 | 0.00 | 88 | 1011.1 |
| 20260508023534 | 5 | 332 | 0.0 | 0.0 | 0.00 | 0.00 | 0.00 | 88 | 1011.0 |
| 20260508023032 | 6 | 335 | 0.0 | 0.0 | 0.00 | 0.00 | 0.00 | 87 | 1010.8 |
| 20260508022528 | 6 | 324 | 0.0 | 0.0 | 0.00 | 0.00 | 0.00 | 86 | 1010.5 |
| 20260508022025 | 6 | 324 | 0.0 | 0.0 | 0.00 | 0.00 | 0.00 | 85 | 1011.0 |
| 20260508021521 | 6 | 323 | 0.0 | 0.0 | 0.00 | 0.00 | 0.00 | 86 | 1010.8 |
| 20260508021017 | 6 | 323 | 0.0 | 0.0 | 0.00 | 0.00 | 0.00 | 87 | 1010.7 |
| 20260508020515 | 6 | 323 | 0.0 | 0.0 | 0.00 | 0.00 | 0.00 | 84 | 1010.7 |
| 20260508020012 | 6 | 323 | 0.0 | 0.0 | 0.00 | 0.00 | 0.00 | 83 | 1010.4 |
| 20260508015509 | 6 | 323 | 0.0 | 0.0 | 0.00 | 0.00 | 0.00 | 82 | 1010.3 |
| 20260508015006 | 6 | 323 | 0.0 | 0.0 | 0.00 | 0.00 | 0.00 | 80 | 1010.7 |
| 20260508014503 | 7 | 323 | 0.0 | 0.0 | 0.00 | 0.00 | 0.00 | 81 | 1010.7 |
| 20260508013959 | 7 | 323 | 0.0 | 0.0 | 0.00 | 0.00 | 0.00 | 79 | 1010.1 |
| 20260508013455 | 7 | 323 | 0.0 | 0.0 | 0.00 | 0.00 | 0.00 | 78 | 1010.7 |
| 20260508012952 | 7 | 323 | 0.0 | 0.0 | 0.00 | 0.00 | 0.00 | 76 | 1010.5 |
| 20260508012449 | 7 | 323 | 0.0 | 0.0 | 0.00 | 0.00 | 0.00 | 73 | 1010.4 |
| 20260508011947 | 7 | 323 | 0.0 | 0.0 | 0.00 | 0.00 | 0.00 | 72 | 1010.4 |
| 20260508011444 | 7 | 323 | 0.0 | 0.0 | 0.00 | 0.00 | 0.00 | 65 | 1010.3 |
| 20260508010942 | 7 | 323 | 0.0 | 0.0 | 0.00 | 0.00 | 0.00 | 64 | 1010.3 |
| 20260508010439 | 8 | 323 | 0.0 | 0.0 | 0.00 | 0.00 | 0.00 | 66 | 1010.1 |
| 20260508005936 | 8 | 322 | 0.0 | 0.0 | 0.00 | 0.00 | 0.00 | 63 | 1010.2 |
| 20260508005432 | 8 | 323 | 0.0 | 0.0 | 0.00 | 0.00 | 0.00 | 60 | 1010.2 |
| 20260508004929 | 8 | 323 | 0.0 | 0.0 | 0.00 | 0.00 | 0.00 | 59 | 1010.1 |
| 20260508004425 | 8 | 323 | 0.0 | 0.0 | 0.00 | 0.00 | 0.00 | 58 | 1010.1 |
| 20260508003922 | 8 | 323 | 0.0 | 0.0 | 0.00 | 0.00 | 0.00 | 58 | 1009.9 |
| 20260508003419 | 9 | 323 | 0.0 | 0.0 | 0.00 | 0.00 | 0.00 | 57 | 1009.9 |
| 20260508002916 | 9 | 323 | 0.0 | 0.0 | 0.00 | 0.00 | 0.00 | 56 | 1010.0 |
| 20260508002413 | 10 | 323 | 0.0 | 0.0 | 0.00 | 0.00 | 0.00 | 56 | 1010.2 |
| 20260508001908 | 10 | 323 | 1.6 | 1.6 | 0.00 | 0.00 | 0.00 | 52 | 1010.1 |
| 20260508001405 | 10 | 326 | 0.0 | 0.0 | 0.00 | 0.00 | 0.00 | 53 | 1009.8 |
| 20260508000902 | 10 | 325 | 1.6 | 1.6 | 0.00 | 0.00 | 0.00 | 51 | 1009.9 |
| 20260508000358 | 11 | 312 | 3.2 | 3.2 | 0.00 | 0.00 | 0.00 | 50 | 1010.0 |
| 20260507235854 | 11 | 296 | 4.8 | 8.0 | 0.00 | 0.00 | 0.00 | 50 | 1009.9 |
| 20260507235352 | 11 | 335 | 6.4 | 8.0 | 0.00 | 0.00 | 0.00 | 49 | 1009.8 |
| 20260507234849 | 11 | 332 | 4.8 | 4.8 | 0.00 | 0.00 | 0.00 | 49 | 1009.8 |
| 20260507234345 | 11 | 299 | 6.4 | 8.0 | 0.00 | 0.00 | 0.00 | 48 | 1009.8 |
| 20260507233842 | 11 | 6 | 3.2 | 3.2 | 0.00 | 0.00 | 0.00 | 50 | 1009.8 |
| 20260507233339 | 11 | 293 | 4.8 | 4.8 | 0.00 | 0.00 | 0.00 | 49 | 1009.9 |
| 20260507232838 | 11 | 313 | 4.8 | 8.0 | 0.00 | 0.00 | 0.00 | 48 | 1009.9 |
| 20260507232334 | 11 | 320 | 6.4 | 8.0 | 0.00 | 0.00 | 0.00 | 48 | 1009.7 |
| 20260507231832 | 11 | 328 | 9.7 | 12.9 | 0.00 | 0.00 | 0.00 | 47 | 1009.6 |
| 20260507231328 | 12 | 321 | 8.0 | 9.7 | 0.00 | 0.00 | 0.00 | 48 | 1009.7 |
| 20260507230824 | 12 | 334 | 3.2 | 3.2 | 0.00 | 0.00 | 0.00 | 48 | 1009.7 |
| 20260507230321 | 12 | 2 | 11.3 | 12.9 | 0.00 | 0.00 | 0.00 | 48 | 1009.6 |
| 20260507225821 | 12 | 282 | 0.0 | 1.6 | 0.00 | 0.00 | 0.00 | 48 | 1009.9 |
| 20260507225318 | 12 | 357 | 4.8 | 4.8 | 0.00 | 0.00 | 0.00 | 46 | 1009.9 |
| 20260507224814 | 12 | 298 | 6.4 | 8.0 | 0.00 | 0.00 | 0.00 | 46 | 1010.1 |
| 20260507224311 | 12 | 302 | 4.8 | 8.0 | 0.00 | 0.00 | 0.00 | 46 | 1009.9 |
| 20260507223807 | 12 | 318 | 9.7 | 12.9 | 0.00 | 0.00 | 0.00 | 46 | 1010.0 |
| 20260507223303 | 12 | 8 | 8.0 | 12.9 | 0.00 | 0.00 | 0.00 | 47 | 1009.6 |
| 20260507222800 | 12 | 8 | 8.0 | 12.9 | 0.00 | 0.00 | 0.00 | 46 | 1009.8 |
| 20260507222256 | 12 | 298 | 8.0 | 9.7 | 0.00 | 0.00 | 0.00 | 45 | 1009.6 |
| 20260507221754 | 12 | 277 | 6.4 | 9.7 | 0.00 | 0.00 | 0.00 | 47 | 1009.9 |
| 20260507221250 | 12 | 285 | 8.0 | 11.3 | 0.00 | 0.00 | 0.00 | 46 | 1009.9 |
| 20260507220746 | 12 | 316 | 9.7 | 11.3 | 0.00 | 0.00 | 0.00 | 47 | 1010.1 |
| 20260507220245 | 12 | 265 | 3.2 | 3.2 | 0.00 | 0.00 | 0.00 | 48 | 1009.8 |
| 20260507215740 | 11 | 322 | 8.0 | 9.7 | 0.00 | 0.00 | 0.00 | 49 | 1009.9 |
| 20260507215238 | 12 | 302 | 8.0 | 9.7 | 0.00 | 0.00 | 0.00 | 49 | 1009.7 |
| 20260507214735 | 12 | 312 | 12.9 | 12.9 | 0.00 | 0.00 | 0.00 | 49 | 1009.6 |
| 20260507214232 | 12 | 335 | 9.7 | 11.3 | 0.00 | 0.00 | 0.00 | 49 | 1009.7 |
| 20260507213727 | 12 | 310 | 6.4 | 8.0 | 0.00 | 0.00 | 0.00 | 51 | 1009.9 |
| 20260507213225 | 12 | 349 | 11.3 | 12.9 | 0.00 | 0.00 | 0.00 | 51 | 1009.6 |
| 20260507212721 | 11 | 22 | 4.8 | 9.7 | 0.00 | 0.00 | 0.00 | 52 | 1009.4 |
| 20260507212218 | 12 | 323 | 4.8 | 4.8 | 0.00 | 0.00 | 0.00 | 53 | 1009.8 |
| 20260507211714 | 12 | 349 | 8.0 | 12.9 | 0.00 | 0.00 | 0.00 | 52 | 1009.6 |
| 20260507211210 | 12 | 298 | 6.4 | 8.0 | 0.00 | 0.00 | 0.00 | 52 | 1009.6 |
| 20260507210708 | 12 | 297 | 6.4 | 9.7 | 0.00 | 0.00 | 0.00 | 52 | 1009.6 |
| 20260507210204 | 12 | 291 | 3.2 | 4.8 | 0.00 | 0.00 | 0.00 | 53 | 1009.5 |
| 20260507205701 | 11 | 349 | 9.7 | 11.3 | 0.00 | 0.00 | 0.00 | 56 | 1009.3 |
| 20260507205157 | 12 | 6 | 11.3 | 17.7 | 0.00 | 0.00 | 0.00 | 56 | 1009.3 |
| 20260507204654 | 11 | 34 | 12.9 | 16.1 | 0.00 | 0.00 | 0.00 | 56 | 1009.2 |
| 20260507204152 | 12 | 319 | 6.4 | 9.7 | 0.00 | 0.00 | 0.00 | 55 | 1009.1 |
| 20260507203649 | 11 | 286 | 4.8 | 8.0 | 0.00 | 0.00 | 0.00 | 51 | 1009.2 |
| 20260507203147 | 11 | 301 | 4.8 | 4.8 | 0.00 | 0.00 | 0.00 | 50 | 1009.4 |
| 20260507202642 | 11 | 308 | 8.0 | 9.7 | 0.00 | 0.00 | 0.00 | 49 | 1009.1 |
| 20260507202138 | 11 | 330 | 9.7 | 9.7 | 0.00 | 0.00 | 0.00 | 51 | 1009.1 |
| 20260507201633 | 12 | 285 | 11.3 | 14.5 | 0.00 | 0.00 | 0.00 | 49 | 1009.3 |
| 20260507201131 | 12 | 277 | 11.3 | 17.7 | 0.00 | 0.00 | 0.00 | 50 | 1009.3 |
| 20260507200627 | 12 | 255 | 4.8 | 4.8 | 0.00 | 0.00 | 0.00 | 47 | 1009.2 |
| 20260507200123 | 12 | 297 | 4.8 | 8.0 | 0.00 | 0.00 | 0.00 | 49 | 1009.2 |
| 20260507195620 | 12 | 231 | 9.7 | 11.3 | 0.00 | 0.00 | 0.00 | 47 | 1009.1 |
| 20260507195117 | 11 | 267 | 9.7 | 11.3 | 0.00 | 0.00 | 0.00 | 49 | 1009.3 |
| 20260507194614 | 11 | 290 | 11.3 | 12.9 | 0.00 | 0.00 | 0.00 | 52 | 1009.4 |
| 20260507194109 | 11 | 302 | 4.8 | 8.0 | 0.00 | 0.00 | 0.00 | 54 | 1009.3 |
| 20260507193606 | 12 | 284 | 4.8 | 9.7 | 0.00 | 0.00 | 0.00 | 51 | 1009.4 |
| 20260507193103 | 12 | 297 | 6.4 | 11.3 | 0.00 | 0.00 | 0.00 | 51 | 1009.4 |
| 20260507192559 | 12 | 239 | 9.7 | 14.5 | 0.00 | 0.00 | 0.00 | 50 | 1009.4 |
| 20260507192057 | 12 | 263 | 4.8 | 4.8 | 0.00 | 0.00 | 0.00 | 49 | 1009.5 |
| 20260507191552 | 12 | 250 | 3.2 | 3.2 | 0.00 | 0.00 | 0.00 | 50 | 1009.6 |
| 20260507191049 | 12 | 281 | 16.1 | 17.7 | 0.00 | 0.00 | 0.00 | 47 | 1009.6 |
| 20260507190546 | 13 | 268 | 0.0 | 1.6 | 0.00 | 0.00 | 0.00 | 50 | 1009.4 |
| 20260507190045 | 12 | 257 | 9.7 | 14.5 | 0.00 | 0.00 | 0.00 | 49 | 1009.4 |
| 20260507185543 | 12 | 296 | 3.2 | 3.2 | 0.00 | 0.00 | 0.00 | 51 | 1009.6 |
| 20260507185039 | 12 | 257 | 8.0 | 9.7 | 0.00 | 0.00 | 0.00 | 48 | 1009.5 |
| 20260507184538 | 11 | 299 | 4.8 | 4.8 | 0.00 | 0.00 | 0.00 | 51 | 1009.4 |
| 20260507184035 | 12 | 284 | 6.4 | 8.0 | 0.00 | 0.00 | 0.00 | 51 | 1009.7 |
| 20260507183531 | 12 | 273 | 4.8 | 8.0 | 0.00 | 0.00 | 0.00 | 51 | 1009.5 |
| 20260507183028 | 12 | 313 | 8.0 | 9.7 | 0.00 | 0.00 | 0.00 | 50 | 1009.6 |
| 20260507182524 | 12 | 239 | 6.4 | 8.0 | 0.00 | 0.00 | 0.00 | 50 | 1009.5 |
| 20260507182020 | 11 | 285 | 6.4 | 8.0 | 0.00 | 0.00 | 0.00 | 49 | 1009.9 |
| 20260507181518 | 12 | 230 | 8.0 | 9.7 | 0.00 | 0.00 | 0.00 | 49 | 1009.7 |
| 20260507181014 | 12 | 242 | 11.3 | 14.5 | 0.00 | 0.00 | 0.00 | 47 | 1009.6 |
| 20260507180510 | 11 | 234 | 4.8 | 4.8 | 0.00 | 0.00 | 0.00 | 49 | 1009.8 |
| 20260507180007 | 12 | 270 | 11.3 | 11.3 | 0.00 | 0.00 | 0.00 | 50 | 1009.7 |
| 20260507175503 | 11 | 251 | 4.8 | 4.8 | 0.00 | 0.00 | 0.00 | 52 | 1009.9 |
| 20260507175001 | 11 | 286 | 11.3 | 12.9 | 0.00 | 0.00 | 0.00 | 53 | 1009.8 |
| 20260507174458 | 11 | 309 | 4.8 | 4.8 | 0.00 | 0.00 | 0.00 | 56 | 1009.8 |
| 20260507173955 | 11 | 299 | 6.4 | 8.0 | 0.00 | 0.00 | 0.00 | 54 | 1009.9 |
| 20260507173452 | 11 | 209 | 1.6 | 1.6 | 0.00 | 0.00 | 0.00 | 55 | 1009.7 |
| 20260507172949 | 11 | 294 | 6.4 | 8.0 | 0.00 | 0.00 | 0.00 | 53 | 1009.9 |
| 20260507172445 | 11 | 304 | 8.0 | 9.7 | 0.00 | 0.00 | 0.00 | 52 | 1009.8 |
| 20260507171942 | 12 | 253 | 6.4 | 8.0 | 0.00 | 0.00 | 0.00 | 50 | 1010.0 |
| 20260507171438 | 12 | 268 | 4.8 | 4.8 | 0.00 | 0.00 | 0.00 | 52 | 1009.8 |
| 20260507170936 | 12 | 222 | 12.9 | 14.5 | 0.00 | 0.00 | 0.00 | 48 | 1010.0 |
| 20260507170432 | 11 | 280 | 9.7 | 11.3 | 0.00 | 0.00 | 0.00 | 52 | 1010.2 |
| 20260507165928 | 12 | 322 | 8.0 | 9.7 | 0.00 | 0.00 | 0.00 | 53 | 1010.0 |
| 20260507165424 | 12 | 276 | 8.0 | 9.7 | 0.00 | 0.00 | 0.00 | 53 | 1009.9 |
| 20260507164920 | 12 | 225 | 8.0 | 9.7 | 0.00 | 0.00 | 0.00 | 51 | 1010.1 |
| 20260507164417 | 12 | 237 | 11.3 | 14.5 | 0.00 | 0.00 | 0.00 | 49 | 1009.9 |
| 20260507163914 | 11 | 302 | 9.7 | 11.3 | 0.00 | 0.00 | 0.00 | 49 | 1009.9 |
| 20260507163412 | 12 | 220 | 4.8 | 4.8 | 0.00 | 0.00 | 0.00 | 50 | 1010.0 |
| 20260507162909 | 12 | 243 | 4.8 | 4.8 | 0.00 | 0.00 | 0.00 | 44 | 1010.0 |
| 20260507162404 | 12 | 260 | 6.4 | 8.0 | 0.00 | 0.00 | 0.00 | 51 | 1010.0 |
| 20260507161902 | 11 | 285 | 11.3 | 12.9 | 0.00 | 0.00 | 0.00 | 54 | 1010.0 |
| 20260507161357 | 12 | 255 | 8.0 | 9.7 | 0.00 | 0.00 | 0.00 | 54 | 1010.3 |
| 20260507160854 | 12 | 328 | 4.8 | 8.0 | 0.00 | 0.00 | 0.00 | 53 | 1009.9 |
| 20260507160350 | 11 | 276 | 3.2 | 4.8 | 0.00 | 0.00 | 0.00 | 53 | 1010.0 |
| 20260507155846 | 11 | 313 | 4.8 | 8.0 | 0.00 | 0.00 | 0.00 | 56 | 1009.9 |
| 20260507155342 | 11 | 295 | 8.0 | 9.7 | 0.00 | 0.00 | 0.00 | 55 | 1010.1 |
| 20260507154839 | 11 | 276 | 4.8 | 4.8 | 0.00 | 0.00 | 0.00 | 54 | 1010.1 |
| 20260507154337 | 11 | 252 | 1.6 | 1.6 | 0.00 | 0.00 | 0.00 | 54 | 1010.0 |
| 20260507153833 | 11 | 256 | 8.0 | 11.3 | 0.00 | 0.00 | 0.00 | 56 | 1010.2 |
| 20260507153330 | 11 | 327 | 8.0 | 9.7 | 0.00 | 0.00 | 0.00 | 54 | 1010.4 |
| 20260507152826 | 11 | 353 | 9.7 | 11.3 | 0.00 | 0.00 | 0.00 | 57 | 1010.0 |
| 20260507152323 | 11 | 289 | 6.4 | 8.0 | 0.00 | 0.00 | 0.00 | 53 | 1010.2 |
| 20260507151819 | 11 | 304 | 4.8 | 4.8 | 0.00 | 0.00 | 0.00 | 58 | 1010.1 |
| 20260507151315 | 11 | 315 | 1.6 | 1.6 | 0.00 | 0.00 | 0.00 | 57 | 1010.1 |
| 20260507150812 | 11 | 12 | 6.4 | 8.0 | 0.00 | 0.00 | 0.00 | 59 | 1010.2 |
| 20260507150309 | 11 | 261 | 4.8 | 4.8 | 0.00 | 0.00 | 0.00 | 59 | 1010.3 |
| 20260507145805 | 11 | 226 | 1.6 | 3.2 | 0.00 | 0.00 | 0.00 | 61 | 1010.2 |
| 20260507145302 | 11 | 204 | 4.8 | 8.0 | 0.00 | 0.00 | 0.00 | 59 | 1010.2 |
| 20260507144759 | 11 | 313 | 1.6 | 1.6 | 0.00 | 0.00 | 0.00 | 59 | 1010.2 |
| 20260507144256 | 11 | 243 | 6.4 | 9.7 | 0.00 | 0.00 | 0.00 | 60 | 1010.2 |
| 20260507143752 | 11 | 230 | 1.6 | 1.6 | 0.00 | 0.00 | 0.00 | 63 | 1010.1 |
| 20260507143250 | 10 | 245 | 6.4 | 8.0 | 0.00 | 0.00 | 0.00 | 64 | 1010.0 |
| 20260507142745 | 10 | 238 | 4.8 | 4.8 | 0.00 | 0.00 | 0.00 | 64 | 1010.2 |
| 20260507142242 | 10 | 329 | 1.6 | 1.6 | 0.00 | 0.00 | 0.00 | 63 | 1010.2 |
| 20260507141739 | 10 | 271 | 4.8 | 8.0 | 0.00 | 0.00 | 0.00 | 64 | 1010.3 |
| 20260507141236 | 11 | 216 | 1.6 | 3.2 | 0.00 | 0.00 | 0.00 | 67 | 1010.4 |
| 20260507140732 | 11 | 220 | 4.8 | 4.8 | 0.00 | 0.00 | 0.00 | 66 | 1010.5 |
| 20260507140230 | 10 | 292 | 3.2 | 3.2 | 0.00 | 0.00 | 0.00 | 67 | 1010.4 |
| 20260507135726 | 10 | 225 | 3.2 | 3.2 | 0.00 | 0.00 | 0.00 | 64 | 1010.7 |
| 20260507135224 | 10 | 268 | 1.6 | 1.6 | 0.00 | 0.00 | 0.00 | 67 | 1010.5 |
| 20260507134720 | 10 | 245 | 0.0 | 1.6 | 0.00 | 0.00 | 0.00 | 68 | 1010.9 |
| 20260507134216 | 10 | 292 | 4.8 | 4.8 | 0.00 | 0.00 | 0.00 | 67 | 1010.7 |
| 20260507133712 | 10 | 338 | 1.6 | 1.6 | 0.00 | 0.00 | 0.00 | 69 | 1010.8 |
| 20260507133209 | 9 | 276 | 0.0 | 0.0 | 0.00 | 0.00 | 0.00 | 69 | 1010.7 |
| 20260507132707 | 9 | 224 | 1.6 | 3.2 | 0.00 | 0.00 | 0.00 | 71 | 1010.7 |
| 20260507132203 | 9 | 197 | 0.0 | 1.6 | 0.00 | 0.00 | 0.00 | 71 | 1010.8 |
| 20260507131700 | 9 | 214 | 1.6 | 1.6 | 0.00 | 0.00 | 0.00 | 73 | 1011.0 |
| 20260507131158 | 8 | 207 | 1.6 | 3.2 | 0.00 | 0.00 | 0.00 | 73 | 1011.1 |
| 20260507130654 | 8 | 227 | 3.2 | 4.8 | 0.00 | 0.00 | 0.00 | 73 | 1010.9 |
| 20260507130152 | 8 | 201 | 1.6 | 1.6 | 0.00 | 0.00 | 0.00 | 75 | 1010.8 |
| 20260507125650 | 8 | 238 | 0.0 | 1.6 | 0.00 | 0.00 | 0.00 | 76 | 1011.0 |
| 20260507125148 | 7 | 237 | 1.6 | 1.6 | 0.00 | 0.00 | 0.00 | 77 | 1011.0 |
| 20260507124643 | 8 | 280 | 3.2 | 3.2 | 0.00 | 0.00 | 0.00 | 76 | 1011.0 |
| 20260507124141 | 7 | 283 | 3.2 | 3.2 | 0.00 | 0.00 | 0.00 | 77 | 1011.1 |
| 20260507123640 | 7 | 282 | 4.8 | 4.8 | 0.00 | 0.00 | 0.00 | 77 | 1011.1 |
| 20260507123136 | 7 | 300 | 1.6 | 1.6 | 0.00 | 0.00 | 0.00 | 78 | 1010.9 |
| 20260507122632 | 7 | 277 | 1.6 | 1.6 | 0.00 | 0.00 | 0.00 | 80 | 1011.0 |
| 20260507122128 | 7 | 257 | 3.2 | 3.2 | 0.00 | 0.00 | 0.00 | 80 | 1010.9 |
| 20260507121624 | 7 | 258 | 3.2 | 3.2 | 0.00 | 0.00 | 0.00 | 82 | 1010.7 |
| 20260507121120 | 6 | 208 | 0.0 | 1.6 | 0.00 | 0.00 | 0.00 | 84 | 1010.5 |
| 20260507120616 | 6 | 206 | 1.6 | 1.6 | 0.00 | 0.00 | 0.00 | 85 | 1010.7 |
| 20260507120113 | 6 | 175 | 0.0 | 0.0 | 0.00 | 0.00 | 0.00 | 85 | 1010.7 |